DW8209 Gubbio IT current weather conditions

sailwx.info

Wind from 280 at 3 knots gusting 4

Air temperature 21.1° C
Dewpoint 14.0° C

Last reported at 2014-Sep-30 10:36 UTC.
Time now 2014-Sep-30 11:53 UTC

Location: N 43°19' E 012°34'.
View on Google Maps.

See reports from other nearby stations

  
Tides and Currents Weather Stations Pressure Air Temp Water Temp Dewpoint Dewpoint Depression Visibility Wind Speed Wind Dir Waves Ship Positions
date/time (UTC)wind fromknots sea level pressurealtimeterstation pressurevisibilityair tempwater tempwave heightnotes
2014-Sep-30 10:36 280 3 gusting 4 21.1
2014-Sep-30 10:21 138 20.6
2014-Sep-30 10:06 248 0 gusting 1 20.0
2014-Sep-30 09:51 248 20.0
2014-Sep-30 09:36 278 19.4
2014-Sep-30 09:21 066 18.3
2014-Sep-30 09:06 347 17.8
2014-Sep-30 08:51 314 0 gusting 3 16.7
2014-Sep-30 08:36 270 16.1
2014-Sep-30 08:21 278 15.6
2014-Sep-30 08:06 235 15.0
2014-Sep-30 07:51 203 13.9
2014-Sep-30 07:36 264 12.8
2014-Sep-30 07:21 266 12.2
2014-Sep-30 07:06 266 11.7
2014-Sep-30 06:51 264 10.6
2014-Sep-30 06:35 265 10.0
2014-Sep-30 06:20 266 9.4
2014-Sep-30 06:05 266 8.9
2014-Sep-30 05:50 266 8.3
2014-Sep-30 04:50 274 7.2
2014-Sep-30 04:35 273 7.8
2014-Sep-30 04:20 273 7.8
2014-Sep-30 04:05 273 7.8
2014-Sep-30 03:50 273 7.8
2014-Sep-30 03:35 276 7.8
2014-Sep-30 03:20 274 8.3
2014-Sep-30 03:05 276 8.3
2014-Sep-30 02:50 276 8.3
2014-Sep-30 02:35 274 7.8
2014-Sep-30 02:20 274 8.3
2014-Sep-30 02:05 274 8.3
2014-Sep-30 01:50 274 8.3
2014-Sep-30 01:35 274 8.3
2014-Sep-30 01:20 275 8.9
2014-Sep-30 01:05 217 8.9
2014-Sep-30 00:50 208 8.9
2014-Sep-30 00:35 208 8.9
2014-Sep-30 00:20 215 9.4
2014-Sep-30 00:05 215 9.4
2014-Sep-29 23:50 215 9.4
2014-Sep-29 23:35 205 9.4
2014-Sep-29 23:20 206 9.4
2014-Sep-29 23:05 206 10.0
2014-Sep-29 22:50 205 10.0
2014-Sep-29 22:35 206 10.0
2014-Sep-29 22:20 186 10.6
2014-Sep-29 22:05 186 10.6
2014-Sep-29 21:50 177 10.6
2014-Sep-29 21:34 178 11.1
2014-Sep-29 21:19 191 11.7
2014-Sep-29 21:04 252 11.7
2014-Sep-29 20:49 273 11.7
2014-Sep-29 20:19 270 12.2
2014-Sep-29 20:04 273 12.2
2014-Sep-29 19:49 273 12.2
2014-Sep-29 19:34 273 12.2
2014-Sep-29 19:19 273 12.8
2014-Sep-29 19:04 273 13.3
2014-Sep-29 18:49 271 13.3
2014-Sep-29 18:34 271 13.9
2014-Sep-29 18:19 273 14.4
2014-Sep-29 18:04 273 15.6
2014-Sep-29 17:49 284 0 gusting 2 16.1
2014-Sep-29 17:34 050 16.7
2014-Sep-29 17:19 234 16.7
2014-Sep-29 17:03 233 17.8
2014-Sep-29 16:48 233 19.4
2014-Sep-29 16:33 233 21.1
2014-Sep-29 16:18 214 0 gusting 2 21.7
2014-Sep-29 16:03 214 1 gusting 3 22.2
2014-Sep-29 15:48 210 1 gusting 4 22.8
2014-Sep-29 15:33 188 0 gusting 4 23.3
2014-Sep-29 15:18 210 23.3
2014-Sep-29 15:03 233 1 gusting 5 23.3
2014-Sep-29 14:48 260 0 gusting 6 23.3
2014-Sep-29 14:33 212 2 gusting 5 23.9
2014-Sep-29 14:18 205 23.9
2014-Sep-29 14:03 275 2 gusting 5 23.3
2014-Sep-29 13:48 219 2 gusting 6 23.3
2014-Sep-29 13:33 333 22.8
2014-Sep-29 13:18 287 0 gusting 2 22.8
2014-Sep-29 13:03 243 0 gusting 3 22.8
2014-Sep-29 12:48 023 22.8
2014-Sep-29 12:33 169 22.8
2014-Sep-29 12:18 343 1 gusting 3 22.8
2014-Sep-29 12:03 240 1 gusting 2 22.8
2014-Sep-29 11:48 207 22.2
2014-Sep-29 11:33 067 21.7
2014-Sep-29 11:17 103 22.2
2014-Sep-29 11:02 283 0 gusting 2 21.7
2014-Sep-29 10:47 258 1 gusting 2 21.1
2014-Sep-29 10:32 014 20.6
2014-Sep-29 10:17 192 0 gusting 2 20.6
2014-Sep-29 10:02 141 2 gusting 4 20.0
2014-Sep-29 09:47 050 0 gusting 1 19.4
2014-Sep-29 09:32 060 19.4
2014-Sep-29 09:17 162 18.3
2014-Sep-29 09:02 077 17.8
2014-Sep-29 08:47 083 17.2
2014-Sep-29 08:32 138 16.1
2014-Sep-29 08:17 118 15.6
2014-Sep-29 08:02 115 14.4
2014-Sep-29 07:47 115 13.3
2014-Sep-29 07:32 093 0 gusting 1 13.3
2014-Sep-29 07:17 117 12.2
2014-Sep-29 07:02 127 11.7
2014-Sep-29 06:47 331 0 gusting 1 11.1
2014-Sep-29 06:32 322 10.0
2014-Sep-29 06:17 284 9.4
2014-Sep-29 06:02 280 8.9
2014-Sep-29 05:47 280 7.2
2014-Sep-29 04:47 260 6.1
2014-Sep-29 04:32 260 6.1
2014-Sep-29 04:16 283 6.7
2014-Sep-29 04:02 307 6.7
2014-Sep-29 03:46 306 6.7
2014-Sep-29 03:31 318 6.7
2014-Sep-29 03:16 269 6.7
2014-Sep-29 03:02 284 7.2
2014-Sep-29 02:46 267 7.2
2014-Sep-29 02:32 267 7.2
2014-Sep-29 02:16 266 7.2
2014-Sep-29 02:01 266 7.2
2014-Sep-29 01:46 266 7.8
2014-Sep-29 01:31 266 0 gusting 1 7.8
2014-Sep-29 01:16 294 0 gusting 0 8.3
2014-Sep-29 01:01 293 0 gusting 2 8.3
2014-Sep-29 00:46 274 8.3
2014-Sep-29 00:31 274 8.9
2014-Sep-29 00:16 277 8.9
2014-Sep-29 00:01 277 0 gusting 1 8.9
2014-Sep-28 23:46 278 8.9
2014-Sep-28 23:31 280 0 gusting 1 8.9
2014-Sep-28 23:16 273 9.4
2014-Sep-28 23:01 273 9.4
2014-Sep-28 22:46 273 9.4
2014-Sep-28 22:31 269 10.0
2014-Sep-28 22:01 288 10.0
2014-Sep-28 21:46 288 0 gusting 1 10.6
2014-Sep-28 21:31 264 1 gusting 1 10.6
2014-Sep-28 21:16 264 10.6
2014-Sep-28 21:00 281 0 gusting 1 10.6
2014-Sep-28 20:45 262 10.6
2014-Sep-28 20:30 262 11.1
2014-Sep-28 20:16 262 11.7
2014-Sep-28 20:00 276 11.7
2014-Sep-28 19:45 240 12.2
2014-Sep-28 19:30 240 12.2
2014-Sep-28 19:15 229 12.8
2014-Sep-28 19:00 229 13.3
2014-Sep-28 18:45 259 13.9
2014-Sep-28 18:30 233 13.9
2014-Sep-28 18:15 238 15.0
2014-Sep-28 18:00 219 16.1
2014-Sep-28 17:45 173 17.8
2014-Sep-28 17:30 032 3 gusting 5 18.3
2014-Sep-28 17:14 023 2 gusting 6 18.3
2014-Sep-28 16:59 037 3 gusting 5 18.9
2014-Sep-28 16:44 034 3 gusting 5 19.4
2014-Sep-28 16:29 031 3 gusting 5 20.0
2014-Sep-28 16:15 047 4 gusting 8 20.0
2014-Sep-28 15:59 046 3 gusting 6 20.0
2014-Sep-28 15:44 037 5 gusting 8 20.6
2014-Sep-28 15:29 037 5 gusting 7 20.6
2014-Sep-28 15:14 037 6 gusting 10 20.6
2014-Sep-28 14:59 041 6 gusting 10 21.1
2014-Sep-28 14:44 042 6 gusting 11 21.1
2014-Sep-28 14:29 025 5 gusting 9 21.1
2014-Sep-28 14:14 039 6 gusting 10 21.1
2014-Sep-28 13:59 041 9 gusting 13 21.1
2014-Sep-28 13:44 053 6 gusting 13 21.1
2014-Sep-28 13:29 047 6 gusting 9 21.1
2014-Sep-28 13:14 060 5 gusting 11 21.1
2014-Sep-28 12:59 065 6 gusting 11 21.7
2014-Sep-28 12:44 081 7 gusting 12 21.1
2014-Sep-28 12:29 038 6 gusting 11 21.1
2014-Sep-28 12:14 055 8 gusting 11 21.7
2014-Sep-28 11:59 058 7 gusting 11 21.1
2014-Sep-28 11:44 082 7 gusting 12 21.1
2014-Sep-28 11:29 064 6 gusting 12 21.1
2014-Sep-28 11:14 066 9 gusting 13 21.1